Location: Cully
(53.2400°N, 7.6561°W)
Time: 14:39:01
(UTC+00:00)

Daily predictions for brighter satellites

Satellite Brightness Start Highest point End
(mag) Time Altitude Azimuth Time Altitude Azimuth Time Altitude Azimuth
Cosmos 1536 Rocket 3.8 20:46:28 10° NNW 20:50:48 76° W 20:55:09 10° S
Cosmos 1371 Rocket 4.1 20:49:58 10° SSW 20:55:17 89° ESE 21:00:41 10° NNE
Cosmos 292 Rocket 4.0 20:50:47 10° NNW 20:55:35 75° WSW 21:00:19 10° SSE
IRS-1A Rocket 4.5 20:53:15 10° SSE 20:59:03 87° WSW 21:05:01 10° NNW
Cosmos 2228 4.2 20:56:21 10° SE 20:59:37 23° E 21:02:52 10° NE
USA 186 1.5 20:58:50 10° SSE 21:01:26 54° ENE 21:04:07 10° N
Helios 1A Rocket 2.4 20:58:17 10° NNE 21:01:28 78° WNW 21:04:37 10° SSW
Tsikada Rocket 4.4 20:56:35 10° N 21:02:34 47° ENE 21:08:28 10° SE
Okean O Rocket 1.6 20:58:31 10° SSE 21:02:48 75° ENE 21:07:07 10° NNW
Cosmos 1697 Rocket 3.3 20:59:29 10° NW 21:04:59 55° WSW 21:10:25 10° S
Cosmos 1741 Rocket 4.1 21:01:52 10° NNW 21:07:13 90° WSW 21:12:32 10° SSE
ERS-1 Rocket 3.8 21:02:40 10° S 21:07:32 51° W 21:12:26 10° NNW
CZ-4C R/B 2.3 21:04:06 10° S 21:07:57 34° ESE 21:12:44 10° ENE
SL-16 R/B 3.5 21:04:01 10° NNW 21:09:04 31° NE 21:14:04 10° ESE
Cosmos 1725 Rocket 4.2 21:03:18 10° SSE 21:09:23 54° E 21:15:27 10° NNE
Cosmos 1452 Rocket 4.0 21:04:37 10° S 21:09:28 40° ESE 21:14:21 10° NE
Cosmos 1867 3.7 21:06:36 10° SW 21:12:03 88° NW 21:17:34 10° NE
ATLAS 3B R/B 3.3 21:05:28 10° NW 21:13:08 61° SW 21:20:22 10° SSE
Okean-O 2.6 21:11:19 10° SSE 21:15:42 86° WSW 21:20:07 10° NNW
Cosmos 968 Rocket 4.3 21:12:37 10° NW 21:17:41 50° WSW 21:22:43 10° S
Cosmos 1331 Rocket 4.0 21:13:24 10° S 21:18:35 63° ESE 21:23:44 10° NNE
Cosmos 1892 Rocket 3.5 21:14:30 10° N 21:18:52 79° ENE 21:23:09 10° SSE
Cosmos 2333 Rocket 3.4 21:16:52 10° NNW 21:22:01 34° NE 21:27:10 10° ESE
CZ-4B R/B 3.6 21:19:07 11° SE 21:23:34 55° ENE 21:28:17 10° N
USA 245 4.4 21:19:03 10° SSE 21:24:53 73° ENE 21:30:40 10° NNW
Cosmos 1455 Rocket 3.1 21:21:24 10° S 21:25:44 62° E 21:30:06 10° NNE
Meteor 2-1 Rocket 4.4 21:21:50 10° SSW 21:27:32 78° WNW 21:33:08 10° NNE
Cosmos 2016 Rocket 4.0 21:22:13 10° S 21:28:25 67° E 21:34:35 10° NNE
SL-08 R/B 3.5 21:24:11 10° NNE 21:29:05 84° WNW 21:33:53 10° SSW
Cosmos 2173 Rocket 4.2 21:24:39 10° SSW 21:30:47 78° WNW 21:37:03 10° N
Okean 1 Rocket 3.5 21:27:33 10° SSW 21:31:54 65° WNW 21:36:20 10° N
Cosmos 1980 Rocket 2.4 21:27:30 10° NW 21:33:12 70° WSW 21:38:33 11° SSE
Cosmos 2084 4.3 21:31:05 10° WSW 21:35:09 53° NNW 21:39:13 10° NE
CZ-4 R/B 3.9 21:33:22 10° SW 21:35:27 15° W 21:37:32 10° NW
CZ-4B R/B 2.4 21:33:11 14° SSE 21:35:59 73° ENE 21:39:23 10° N
Cosmos 2061 Rocket 4.3 21:30:19 10° SSE 21:36:16 51° E 21:42:19 10° NNE
Cosmos 1782 2.6 21:33:04 10° S 21:36:31 56° E 21:39:59 10° NNE
SPOT 3 Rocket 3.5 21:34:29 11° SSE 21:39:24 84° ENE 21:44:34 10° NNW
Cosmos 2084 Rocket 3.4 21:42:57 10° NW 21:47:10 90° S 21:50:19 18° SE
Cosmos 1758 Rocket 3.9 21:46:19 10° N 21:50:36 53° ENE 21:53:42 18° SSE
Cosmos 1110 Rocket 4.3 21:47:34 10° SSW 21:52:52 72° WNW 21:58:12 10° NNE
Terra 3.9 21:49:27 10° SW 21:53:12 23° W 21:56:58 10° NW
Helios 1B rocket 4.1 21:51:51 11° E 21:53:57 16° ENE 21:56:14 10° NNE
Cosmos 1833 Rocket 3.6 21:48:53 10° SW 21:54:22 51° NW 21:59:52 10° NNE
IRS-1C Rocket 4.1 21:51:54 14° SSE 21:56:26 89° WSW 22:01:46 10° NNW
CZ-2C R/B 1.8 21:55:17 24° SSE 21:56:47 73° ENE 21:59:36 10° N
YAOGAN 11 4.5 21:52:48 10° N 21:57:10 67° WNW 22:01:34 10° SSW
Cosmos 1802 Rocket 4.3 21:51:20 10° SSW 21:57:31 71° WNW 22:03:41 10° N
Cosmos 1743 3.6 21:55:15 10° NNW 21:57:59 32° W 22:00:43 10° SSW
Gbstr 26 Del rocket 4.0 21:53:54 10° W 21:58:24 34° SSW 22:00:52 19° SSE
Cosmos 2360 Rocket 3.3 21:54:04 10° NNW 21:59:18 36° NE 22:04:14 11° ESE
NOSS 3-3 (C) 4.4 22:02:52 14° S 22:06:44 32° ESE 22:12:09 10° ENE
ISS -2.9 22:04:09 10° SW 22:07:05 28° SSE 22:08:14 23° ESE
Cosmos 2237 4.3 22:03:18 10° NW 22:09:03 77° WSW 22:13:13 19° SSE
USA 305 2.9 22:07:32 10° WNW 22:11:29 49° SSW 22:13:10 27° SSE
Cosmos 44 Rocket 3.4 22:06:42 10° SW 22:11:48 87° SE 22:17:02 10° NE
BREEZE-M R/B 4.5 22:03:12 10° WSW 22:13:58 74° S 22:19:39 10° E
Cosmos 1602 Rocket 3.8 22:12:03 10° N 22:16:18 55° ENE 22:18:42 24° SE
Ariane Rocket 3.3 22:12:25 16° S 22:16:28 64° WSW 22:21:31 10° NNW
Cosmos 2219 Rocket 3.5 22:11:42 10° NNW 22:16:47 33° NE 22:21:47 10° ESE
DEBRIS 3.8 22:14:01 10° WSW 22:17:26 58° SSE 22:28:18 10° E
NOSS 3-4 (A) 4.0 22:12:54 10° NW 22:19:13 64° NE 22:26:01 13° ESE
NOSS 3-4 (C) 4.0 22:13:29 10° NW 22:19:50 64° NE 22:26:40 13° ESE
Cosmos 1437 Rocket 3.0 22:21:47 29° SSE 22:23:04 43° E 22:26:29 10° NNE
Cosmos 2369 4.1 22:18:47 10° NW 22:24:22 55° WSW 22:28:18 19° S
Cosmos 2151 2.8 22:22:28 10° NNW 22:26:37 88° W 22:28:56 25° S
Cosmos 2322 Rocket 2.7 22:21:29 10° NNW 22:27:01 52° NE 22:31:03 18° ESE
ATLAS 2AS CENTAUR R/B 3.8 22:23:39 10° W 22:30:18 48° NNW 22:36:52 10° NE
Cosmos 2082 Rocket 2.2 22:24:37 10° SSW 22:30:20 82° ESE 22:36:05 10° NNE
Cosmos 1626 Rocket 4.0 22:29:58 10° NNW 22:34:14 57° W 22:37:03 20° SSW
Cosmos 2228 4.0 22:32:23 10° SW 22:36:20 43° WNW 22:40:16 10° N
Cosmos 1891 Rocket 4.4 22:31:35 18° S 22:36:20 77° E 22:42:25 10° NNE
Meteor 1-5 Rocket 4.4 22:30:56 10° N 22:36:33 66° ENE 22:40:03 24° SSE
Okean O Rocket 4.1 22:36:54 10° SW 22:39:31 16° W 22:42:09 10° NW
USA 234 4.0 22:34:32 10° ENE 22:40:07 29° SE 22:42:48 22° SSE
Cosmos 1607 3.9 22:37:50 10° SW 22:44:01 86° SE 22:50:21 10° NE
Okean 1-7 Rocket 3.7 22:40:37 10° N 22:45:02 67° ENE 22:47:08 30° SSE
Cosmos 1503 Rocket 4.5 22:40:51 10° NNW 22:45:59 53° ENE 22:49:02 23° SE
Cosmos 2278 3.7 22:40:30 10° NNW 22:46:16 85° ENE 22:49:38 26° SSE
Cosmos 1777 Rocket 4.2 22:41:04 10° NNW 22:46:19 65° ENE 22:49:16 26° SE
Helios 1A 3.1 22:43:39 10° NNE 22:47:29 47° E 22:48:44 34° SSE
Cosmos 909 Rocket 4.0 22:42:24 10° SSW 22:48:41 76° SE 22:55:15 10° NE
Cosmos 1805 2.6 22:46:50 10° N 22:50:07 85° E 22:51:00 45° SSE
Cosmos 1992 Rocket 3.9 22:45:57 13° SSW 22:50:34 89° ESE 22:55:49 10° NNE
BREEZE-M DEB (TANK) 3.8 22:49:12 10° WSW 22:49:34 12° WSW 22:49:34 12° WSW
COSMOS 2406 3.2 22:49:26 19° SSW 22:53:38 64° ESE 22:59:20 10° NE
SL-16 R/B 2.3 22:47:59 10° NW 22:53:40 72° WSW 22:56:47 27° SSE
Cosmos 1606 Rocket 3.9 22:52:45 32° SSE 22:54:22 49° E 22:58:34 10° NNE
CZ-4C R/B 2.7 22:51:19 10° WSW 22:55:49 57° NNW 23:01:42 10° NE
USA 290 4.5 22:56:47 13° E 22:56:47 13° E 22:57:44 10° ENE
Cosmos 1486 Rocket 4.0 22:52:50 10° NNW 22:58:07 86° ENE 23:00:50 30° SSE
Nadezhda 4 Rocket 3.9 22:53:06 10° N 22:59:15 88° E 23:02:51 27° S
Cosmos 1766 4.2 22:57:51 10° N 23:00:38 26° ENE 23:01:17 24° E
CSL-04 DEB 4.1 23:00:26 41° SE 23:01:30 68° ENE 23:05:06 10° NNW
EP 1 4.0 22:59:14 10° NW 23:01:50 87° SW 23:01:54 84° SSE
Cosmos 2098 Rocket 3.2 23:02:09 27° S 23:04:56 83° E 23:09:31 10° NNE
Cosmos 2333 Rocket 2.3 23:01:05 10° NW 23:06:44 66° WSW 23:09:39 29° S
Cosmos 1726 Rocket 3.8 23:06:20 36° SE 23:07:28 47° E 23:11:22 10° NNE
SeaSat 1 4.0 23:04:03 10° E 23:08:15 30° NE 23:12:29 10° NNW
Cosmos 1076 Rocket 3.5 23:05:47 10° N 23:10:04 72° ENE 23:11:38 38° SSE
BREEZE-M DEB (TANK) 3.9 23:05:46 10° WSW 23:15:40 55° S 23:20:30 10° E
Cosmos 1980 Rocket 4.4 23:13:19 10° WNW 23:16:09 14° W 23:18:58 10° SW
Cosmos 2195 Rocket 4.5 23:11:03 10° N 23:17:21 84° ENE 23:20:43 29° SSE
CZ-2C R/B 4.1 23:16:22 14° ESE 23:19:56 28° ENE 23:24:20 10° N
Cosmos 1933 4.2 23:19:11 21° SW 23:21:21 41° WNW 23:25:00 10° N
Cosmos 2026 Rocket 4.0 23:17:27 10° N 23:23:52 80° E 23:27:17 30° SSE
Okean 1 2.9 23:23:58 53° S 23:24:42 78° E 23:28:18 10° NNE
Spot 4 3.9 23:23:21 34° SE 23:25:23 70° ENE 23:30:10 10° NNW
Helios 1B rocket 2.3 23:25:48 44° SSW 23:26:35 56° WSW 23:30:03 10° NNW
SAR-Lupe-2 4.1 23:26:37 37° ESE 23:27:16 42° ENE 23:30:27 10° N
Aureole 1 Rocket 4.2 23:23:20 10° NNW 23:28:20 54° ENE 23:32:02 23° SE
NOSS 3-3 (A) 3.9 23:23:40 10° SW 23:29:01 81° NW 23:35:38 10° NE
DNEPR-1 R/B 4.4 23:25:20 10° NW 23:30:37 62° SW 23:33:34 31° SSE
Cosmos 44 4.1 23:28:43 10° NW 23:34:04 56° NE 23:38:08 17° ESE
Cosmos 2333 4.2 23:31:08 10° NW 23:36:50 76° WSW 23:39:28 33° SSE
Cosmos 1271 Rocket 4.3 23:38:06 19° E 23:38:07 19° E 23:40:34 10° NE
RESURS DK-1 4.1 23:37:54 10° NNW 23:41:21 27° NE 23:44:13 13° E
Cosmos 1464 Rocket 4.3 23:38:02 21° SSW 23:42:10 63° WNW 23:48:18 10° N
Cosmos 1375 Rocket 4.5 23:37:40 17° SW 23:42:50 81° SE 23:49:28 10° NE
ISS -1.8 23:40:15 10° WSW 23:41:23 19° WSW 23:41:23 19° WSW
Cosmos 2360 Rocket 2.4 23:38:00 10° NW 23:43:36 59° WSW 23:45:58 34° S
Cosmos 1825 Rocket 4.4 23:40:31 10° NNW 23:44:35 41° W 23:46:09 29° SW
ALOS 2 2.5 23:43:55 42° SSE 23:45:22 87° ENE 23:49:48 10° NNW
ARIANE 5 R/B 2.6 23:44:33 42° S 23:46:00 79° WSW 23:50:29 10° NNW
Cosmos 1953 Rocket 3.7 23:42:05 10° NNW 23:46:26 65° W 23:47:47 41° SSW
Meteor 1-26 Rocket 4.2 23:45:25 35° S 23:47:47 73° E 23:53:25 10° NNE
GP-B 4.5 23:44:02 10° NNE 23:47:48 27° E 23:49:14 23° ESE
Cosmos 2058 Rocket 3.1 23:48:52 44° SSE 23:50:03 64° E 23:54:22 10° NNE
